Temp
21 21 21 21 21 22 22 22 22 21 21 21 21 21 21 21 21 23 24 24 23 22 23 22 23 23 21 20 20 20 20 19 19 18 18 17 17 17 17 17 17 17 17 17 17 17 17 18 18 18 18 19 19 19 19 19 19 20 20 19 20 20 20 20 19 19 19 19 18 18 17 18 18 17 17 17 17 17 17 17 17 17 17 17 16 16
21 21 21 22 22 22 21 20 20 20 20 21 21 21 21 21 22 24 24 23 23 23 22 21 23 23 21 21 21 21 20 20 19 18 18 17 17 17 17 17 17 17 17 17 16 16 17 18 18 19 19 18 18 18 18 19 19 19 20 20 20 20 20 20 20 19 19 19 19 18 17 18 18 17 17 17 17 17 17 17 17 17 17 17 17 17
20 20 21 21 20 19 19 19 20 20 20 21 21 21 21 22 22 23 24 23 23 24 23 22 24 23 21 21 21 21 21 20 19 18 18 18 17 17 17 17 17 17 18 17 16 16 17 18 18 19 19 19 18 18 18 19 19 20 20 20 20 20 20 20 20 20 20 19 19 18 18 17 17 17 17 17 17 17 17 17 17 17 17 17 17 17
20 21 22 20 19 19 20 20 20 20 20 21 21 21 21 22 22 22 24 24 23 23 23 23 24 23 22 21 21 21 21 20 19 19 18 18 18 18 18 18 17 17 18 17 17 16 16 17 17 18 18 18 18 18 18 19 19 20 20 20 20 20 20 20 20 20 20 19 19 19 18 17 17 16 16 16 16 16 17 17 17 17 17 17 17 17
21 22 21 20 20 21 21 21 21 21 21 21 22 22 22 22 22 22 23 23 23 22 22 24 23 22 22 22 22 21 21 20 19 19 19 18 18 18 18 18 18 18 18 17 17 17 16 16 16 18 18 18 18 18 18 19 20 20 20 20 20 20 20 20 20 19 19 19 19 19 18 17 17 16 16 16 16 16 16 16 16 16 16 17 17 17
21 21 21 21 21 20 21 21 21 22 21 21 22 23 23 23 23 22 22 23 23 22 21 22 21 21 22 22 22 21 21 20 19 19 19 18 18 19 18 18 18 18 18 18 17 17 16 16 16 17 18 18 17 17 18 19 20 20 20 20 20 20 20 20 20 19 19 19 19 18 18 17 17 17 16 16 16 16 16 16 16 16 16 16 17 17
22 22 22 22 22 20 20 20 21 21 21 21 22 23 23 23 23 23 23 22 21 21 21 20 21 21 21 22 22 21 21 20 19 19 19 18 19 19 18 18 18 18 18 18 18 17 16 16 16 17 17 17 17 18 18 19 19 20 20 20 19 20 20 20 20 19 19 19 18 18 18 18 17 17 17 16 16 16 16 16 16 16 16 16 16 16
22 23 23 22 21 20 20 21 21 21 21 22 21 22 23 24 24 23 23 22 21 21 21 21 21 21 21 22 21 20 20 20 20 20 19 19 19 18 18 18 18 18 18 18 18 18 17 16 16 17 17 18 18 18 18 18 19 20 20 20 19 20 20 20 19 19 19 19 18 18 18 18 18 18 17 16 16 16 16 16 16 16 16 16 16 16
21 23 23 22 21 20 21 22 22 21 23 23 21 22 23 23 23 23 23 22 21 21 21 21 21 21 21 21 21 20 21 20 20 20 20 20 19 19 19 18 18 18 18 18 18 18 17 16 17 17 17 18 18 18 18 18 19 19 20 19 19 20 20 20 19 19 19 19 18 18 18 18 17 17 17 16 16 16 16 16 16 16 16 16 16 16
22 23 23 22 22 21 23 24 22 22 24 23 21 22 22 22 21 21 22 22 21 20 21 20 20 20 20 21 22 21 21 21 21 21 20 20 20 19 19 18 18 18 18 18 18 17 17 17 17 17 17 18 18 18 18 19 19 19 19 19 19 19 19 19 19 19 19 19 19 18 18 18 17 16 16 16 16 16 16 16 16 16 15 16 16 16
22 22 22 22 23 23 24 23 21 22 23 22 22 22 22 21 21 21 21 21 21 20 20 20 20 20 20 21 22 22 22 21 22 22 21 20 20 19 19 19 19 19 18 18 18 17 16 17 17 17 18 18 18 18 18 18 19 19 19 18 18 18 18 19 18 18 19 19 19 18 18 18 17 16 16 16 16 15 15 15 15 15 15 15 16 16
22 23 22 23 23 23 24 23 21 21 22 22 23 22 22 21 20 21 20 20 20 20 20 20 19 20 20 21 21 21 20 19 20 21 21 20 20 19 19 19 18 19 18 18 19 18 17 17 17 17 17 17 17 17 17 17 17 17 16 16 16 16 17 18 18 18 18 19 19 19 18 18 17 16 16 16 16 15 15 15 15 15 15 15 15 16
22 23 22 23 23 23 24 23 22 22 21 22 23 21 21 20 20 20 20 19 20 20 20 19 19 20 20 21 20 19 19 18 19 20 19 19 20 19 19 19 19 19 18 19 18 18 18 17 16 16 17 17 17 17 17 16 15 15 15 16 16 17 18 19 19 18 18 18 19 18 18 18 17 17 17 17 16 16 15 15 15 15 15 15 15 15
21 22 22 23 24 24 24 23 22 22 22 22 22 21 21 20 19 19 18 18 19 20 19 18 19 20 20 20 19 18 17 17 17 18 18 18 18 18 18 18 18 18 18 19 18 18 18 17 16 16 17 17 17 17 16 15 15 15 16 17 18 18 18 19 19 18 18 18 18 18 18 18 17 17 17 17 17 16 16 16 16 15 15 15 15 15
21 21 22 23 23 23 24 24 23 23 22 21 21 21 21 20 20 20 19 19 19 19 19 18 19 20 20 20 19 17 17 16 17 17 17 17 17 17 17 17 17 17 17 17 17 18 17 16 16 16 16 17 17 16 16 15 15 15 15 17 19 19 19 19 18 18 18 18 18 18 18 18 17 17 17 17 17 16 16 16 16 16 16 15 15 15
20 21 22 23 22 22 23 23 23 24 22 20 19 21 21 21 21 19 18 19 19 19 19 19 19 19 19 19 19 18 17 17 17 17 17 17 17 16 16 16 16 15 16 16 17 17 16 14 15 16 16 16 16 16 15 15 15 15 15 17 17 17 17 17 16 17 18 18 18 18 18 18 17 17 18 18 17 16 16 16 16 16 16 16 15 15
20 21 22 22 22 23 22 22 23 23 22 20 19 21 20 20 21 20 17 17 18 20 19 18 19 19 18 19 19 18 18 18 17 17 17 17 17 17 16 17 17 15 15 15 16 16 15 13 14 16 16 16 16 16 15 15 15 15 15 16 15 15 15 15 14 15 17 17 18 18 18 18 17 17 18 18 18 17 16 16 16 16 16 16 15 15
20 21 21 22 23 23 21 22 23 22 21 21 21 21 20 19 20 20 19 18 18 19 19 17 18 19 19 19 19 18 19 18 17 17 17 17 17 17 16 17 18 16 15 14 14 14 14 12 13 15 15 16 16 16 16 15 15 15 15 15 14 14 15 14 13 15 17 17 18 18 18 18 17 17 18 18 18 17 17 16 16 16 16 16 16 15
20 21 21 21 22 22 22 22 23 22 21 21 21 21 20 20 21 20 19 19 18 18 18 17 17 18 19 19 19 19 19 18 17 17 17 17 17 16 16 16 16 15 15 15 15 14 13 12 12 14 15 15 16 16 16 15 15 15 15 15 14 14 14 14 14 15 17 17 17 17 17 17 17 17 18 18 17 17 17 17 17 16 16 16 16 16
19 20 21 21 21 21 22 22 21 21 22 21 21 21 20 20 20 19 19 19 19 18 17 18 18 18 19 19 19 19 18 17 17 17 17 17 16 15 15 15 15 14 15 15 15 15 14 12 12 13 14 15 15 15 16 15 15 15 15 15 15 14 13 14 14 15 16 16 16 17 17 17 17 17 18 18 17 17 17 17 17 17 17 16 16 16
19 19 20 21 21 20 21 21 20 21 21 21 21 21 20 19 18 19 18 18 19 19 18 18 18 18 19 19 18 19 18 17 17 17 16 16 16 15 15 14 14 14 14 14 14 14 13 12 12 13 14 15 15 15 16 15 15 15 15 15 15 15 14 14 14 15 16 16 16 16 16 16 16 17 17 17 17 17 17 17 17 17 17 16 16 16
20 19 20 21 20 20 20 20 20 20 20 20 20 19 18 19 19 19 19 17 18 19 18 18 18 18 19 19 18 18 17 17 17 16 16 16 16 15 15 15 14 14 14 14 14 14 13 12 12 13 14 14 15 15 16 16 15 15 14 14 15 15 15 15 15 15 15 16 15 15 15 16 16 16 17 17 17 17 17 17 17 17 17 17 17 16
18 19 20 20 19 19 19 19 19 19 19 19 19 18 17 18 19 20 20 18 18 17 16 18 18 18 19 18 17 17 16 16 16 16 16 16 15 15 15 15 14 14 14 13 13 13 12 12 13 13 14 14 14 15 15 15 15 15 15 14 14 14 14 15 15 14 15 15 15 14 15 16 16 16 17 17 17 17 17 17 16 16 16 16 16 16
18 19 19 19 18 18 19 19 19 19 19 19 19 17 17 18 18 18 18 18 18 17 17 18 18 18 19 16 15 16 16 16 16 15 15 15 15 15 15 15 14 14 13 13 13 12 11 12 12 12 13 14 15 16 16 15 15 15 15 14 14 14 14 14 14 14 14 14 14 14 15 15 15 16 16 17 17 17 17 17 15 15 15 15 16 16
19 18 18 19 18 18 18 19 20 20 19 18 18 17 17 17 17 17 16 18 19 17 18 19 18 17 17 15 15 16 15 16 15 15 15 15 15 15 14 14 14 14 14 14 14 13 13 13 12 12 12 13 14 16 16 16 15 14 15 15 14 14 13 13 13 13 13 14 14 14 15 15 16 16 16 16 16 16 16 16 15 15 16 16 15 15
19 17 18 19 18 17 17 17 18 19 18 17 17 17 17 17 18 18 18 19 19 16 16 19 18 17 16 15 15 15 15 15 15 15 15 15 15 15 15 15 15 14 14 14 14 14 13 12 12 12 12 13 13 14 15 15 14 14 14 14 14 13 13 13 13 13 13 14 14 15 15 16 16 16 16 16 16 16 16 15 15 15 15 15 15 15
18 16 16 18 18 18 17 17 17 18 17 17 17 17 17 16 17 18 18 19 18 17 17 17 17 17 16 15 15 15 15 15 15 15 15 15 15 15 15 15 14 14 14 14 14 14 14 13 12 12 12 13 13 13 14 14 14 14 14 14 13 12 12 13 13 13 13 14 14 15 15 16 16 15 15 15 16 16 16 16 15 15 15 15 15 15
18 17 16 16 17 17 17 17 17 17 17 17 17 17 17 17 18 19 19 17 17 17 18 16 15 16 15 13 13 13 14 14 14 14 15 15 15 15 14 14 14 14 14 14 15 14 14 14 13 11 12 13 13 13 14 14 14 15 15 15 14 13 12 12 12 13 13 14 14 15 16 16 16 15 14 15 16 16 16 16 15 15 15 15 15 14
18 17 16 15 16 15 15 16 16 16 15 14 15 15 16 17 18 18 17 15 16 18 17 14 14 14 13 12 12 12 12 13 13 12 13 13 14 14 14 14 14 14 14 14 15 14 14 14 13 11 12 13 14 14 14 14 14 14 15 15 15 15 14 13 13 13 13 14 14 15 15 16 15 15 15 15 16 15 15 15 15 15 15 15 15 14
17 16 15 16 15 14 14 15 16 16 15 13 13 13 14 15 15 15 13 12 14 15 13 12 13 12 11 11 11 11 11 11 11 11 11 11 11 13 14 14 13 14 13 13 13 13 13 12 11 11 12 12 14 15 15 14 14 14 15 15 15 15 15 14 14 13 13 14 14 14 15 15 15 14 15 15 16 15 15 15 15 15 15 15 15 14
17 16 15 16 16 14 14 14 15 15 15 14 13 13 13 14 14 13 12 12 13 13 11 12 13 12 11 11 10 11 11 11 11 11 10 10 10 11 12 12 12 13 13 13 13 12 12 11 10 10 11 12 12 13 14 15 15 15 15 15 15 15 15 14 14 14 14 14 14 14 15 15 15 15 15 15 15 15 15 14 14 14 14 14 14 13
17 15 15 16 16 14 14 14 14 15 15 14 14 12 13 13 13 12 11 10 12 13 13 13 13 11 11 11 10 10 10 10 10 10 10 10 10 10 10 10 10 11 11 11 12 11 11 11 9 9 10 12 12 12 13 14 15 15 15 15 15 15 15 15 15 15 14 14 14 14 14 14 14 14 14 14 14 14 14 14 14 14 14 14 14 13
16 16 15 16 16 14 14 13 14 15 15 14 13 11 11 11 11 10 9 8 9 11 12 13 11 10 10 10 10 10 10 10 10 10 10 10 10 10 10 9 9 9 9 10 10 10 10 10 9 9 11 12 12 12 13 13 14 15 15 15 15 15 15 15 15 15 15 15 15 14 14 14 14 14 14 14 14 14 14 14 15 15 15 15 15 15
15 16 15 14 15 15 13 13 14 15 14 13 11 10 10 10 10 10 9 8 8 9 10 10 10 9 10 10 9 9 9 9 10 9 10 10 10 10 10 9 9 10 10 9 10 9 9 8 9 10 12 12 13 13 13 13 14 14 15 15 15 15 15 15 15 15 15 15 15 15 15 15 15 15 15 15 15 15 15 15 15 15 15 15 15 15
16 16 14 13 14 14 12 13 14 13 12 11 9 9 10 10 9 9 8 8 8 9 9 9 9 9 10 10 9 9 9 9 9 9 9 9 10 10 10 10 10 10 10 11 10 10 9 9 10 10 11 12 12 13 13 13 14 14 14 15 15 15 15 15 15 15 15 15 15 15 16 16 16 16 15 15 15 15 15 15 15 15 15 15 15 15
16 16 14 13 13 12 13 14 13 11 10 10 9 9 10 9 10 10 10 9 8 8 9 9 9 9 9 10 10 9 9 9 9 9 9 9 9 9 10 10 10 10 10 10 10 10 10 11 11 11 11 11 11 12 12 12 12 13 14 14 14 14 15 15 15 15 15 15 15 15 15 15 15 15 15 15 15 15 15 15 15 15 15 14 14 14
15 15 15 14 12 12 13 12 10 10 10 10 10 10 9 9 10 10 9 9 9 8 8 9 9 9 9 10 10 9 9 10 10 9 9 9 8 8 8 8 9 9 9 9 9 10 10 11 11 11 11 11 12 12 12 12 12 12 13 13 13 13 14 14 14 14 15 15 15 15 15 15 15 15 15 15 15 15 15 15 15 15 14 14 14 14
14 14 15 15 12 11 12 10 8 9 10 10 10 9 9 9 8 9 9 9 9 8 8 8 9 9 9 9 9 9 9 10 10 9 9 9 8 8 8 7 8 8 8 9 10 10 10 11 11 11 11 11 12 12 12 12 12 12 12 13 13 13 13 13 14 14 14 14 14 15 15 15 15 15 15 15 15 15 15 15 15 15 15 15 15 14
12 12 13 14 12 11 12 12 10 9 9 9 8 9 9 8 7 8 9 9 8 8 8 8 8 8 8 9 8 9 10 10 9 8 9 9 8 7 7 7 7 8 9 9 9 9 10 10 10 11 11 11 11 11 11 11 11 11 11 12 13 12 12 12 13 13 13 13 14 14 14 14 14 15 15 15 15 15 15 15 15 14 14 14 14 14
12 11 12 13 12 11 12 11 9 8 8 8 8 9 8 7 7 9 10 9 8 8 7 8 8 8 8 8 8 9 9 9 8 9 9 8 7 7 7 7 7 8 9 9 9 9 10 10 10 10 10 10 10 10 10 10 10 10 10 11 13 13 12 13 13 13 13 13 13 13 13 14 14 14 14 14 14 14 14 14 14 14 14 14 14 14
10 10 10 10 10 10 10 9 7 7 8 8 8 8 8 8 9 10 9 8 7 7 7 7 8 8 8 8 8 8 8 8 8 8 8 7 6 7 7 7 7 8 8 9 9 9 9 10 10 10 10 10 10 10 10 10 10 10 10 11 12 12 13 13 13 13 13 13 14 14 14 14 14 14 14 14 14 14 14 14 14 14 13 13 13 13
9 9 9 9 9 8 8 7 6 7 8 8 8 8 8 9 9 8 8 8 7 7 7 7 8 7 8 8 8 8 8 8 7 7 7 6 6 6 6 6 7 8 8 8 8 9 9 9 9 9 9 10 9 9 10 10 10 10 10 11 11 12 12 13 13 14 14 14 14 14 14 14 14 14 14 14 14 14 13 13 13 13 13 13 12 12
8 8 8 8 8 8 7 7 7 7 7 7 8 8 8 8 7 7 7 7 7 7 7 7 7 7 7 8 7 7 7 7 7 7 6 6 6 5 5 5 6 6 7 8 8 8 8 8 8 9 9 9 9 9 9 9 10 10 10 10 11 11 12 12 13 13 13 13 14 14 14 14 14 14 14 13 13 13 13 13 13 13 13 12 12 12
8 8 8 7 7 7 7 6 6 6 6 6 7 7 7 7 7 7 7 7 7 7 7 7 7 7 7 7 7 7 7 7 6 6 5 6 5 4 4 5 5 6 6 7 7 8 8 7 8 8 8 8 9 9 9 9 9 10 10 10 10 11 11 11 12 12 13 13 13 13 13 13 13 13 13 13 13 13 13 13 13 13 13 12 12 12
8 8 8 7 6 6 6 5 5 6 6 6 7 6 6 6 7 7 7 7 6 6 6 6 6 6 5 6 6 6 6 5 5 5 4 5 4 3 3 4 5 5 5 6 7 7 7 7 7 7 7 8 8 8 8 9 9 9 9 10 10 10 10 10 11 11 12 12 13 13 13 13 13 13 13 13 13 13 13 13 13 13 13 12 12 11
8 7 7 6 5 5 6 6 6 6 6 6 6 6 6 6 6 6 6 6 5 5 5 5 5 5 5 5 5 5 5 4 4 4 3 3 3 3 3 3 4 4 4 5 5 6 6 6 7 7 7 7 7 7 7 8 8 8 9 9 9 9 9 10 10 10 11 11 12 12 13 13 13 13 13 13 13 13 13 13 13 13 13 12 12 11
8 8 7 7 6 6 6 6 6 6 6 6 6 6 5 6 5 5 5 5 4 4 4 4 4 4 4 4 3 3 3 3 3 2 2 2 2 2 2 2 2 2 3 3 3 4 4 4 5 5 6 6 7 7 7 7 7 7 8 8 8 8 9 9 9 10 10 10 11 11 11 12 12 12 12 12 12 12 13 13 13 13 12 12 12 11
8 8 8 7 6 6 6 6 6 6 5 5 5 5 5 5 5 5 4 4 3 3 3 2 2 2 2 2 2 2 2 2 1 1 1 1 1 1 1 1 1 1 1 2 2 2 2 2 2 3 3 4 5 5 6 6 6 7 7 7 8 8 8 8 9 9 9 9 10 10 11 11 11 11 12 12 12 12 12 12 12 12 12 12 12 11
7 8 7 6 5 5 5 6 6 5 4 4 4 5 5 5 4 4 3 3 3 3 3 2 1 1 1 1 1 1 1 1 1 0 1 0 0 0 1 1 1 1 1 1 1 1 1 1 1 2 2 2 3 4 4 5 5 6 6 7 7 7 7 8 8 8 8 9 9 9 10 10 10 11 11 11 11 11 11 12 12 12 12 12 12 12
7 7 6 6 6 6 6 6 5 5 5 5 4 4 4 4 4 3 3 3 3 2 2 2 2 1 1 1 1 1 1 1 0 -0 -0 -0 -0 -0 0 0 0 0 0 0 0 0 0 0 1 1 1 1 2 2 3 3 4 5 5 5 6 6 6 7 7 7 7 7 8 8 9 9 10 10 10 11 11 11 11 11 11 11 11 12 12 12
7 7 7 7 7 7 7 6 6 6 5 4 4 4 3 3 3 3 3 2 2 1 1 1 2 1 1 1 1 1 0 -0 -0 -1 -1 -1 -0 -0 -0 -0 -0 -0 -0 -0 -1 -1 -1 -0 -0 -0 0 0 1 1 1 2 2 3 4 4 4 4 5 5 6 6 6 7 7 7 8 8 9 9 9 10 10 10 10 10 10 10 11 11 11 11
Height
749 756 762 762 760 757 756 757 756 757 762 763 764 765 764 764 758 748 740 734 734 742 747 746 746 748 751 753 754 754 756 759 763 765 766 766 768 769 770 770 770 769 768 767 768 770 772 774 775 777 778 779 781 783 784 784 785 786 787 789 791 793 795 797 798 800 801 801 803 804 805 806 806 807 808 809 809 810 811 811 811 811 811 811 811 811
753 762 761 754 753 753 756 759 758 760 762 762 763 764 764 762 753 742 738 737 734 739 749 749 746 749 752 753 753 754 756 758 760 764 765 766 768 768 769 770 770 770 770 770 771 771 772 774 776 778 779 780 782 784 784 784 785 787 787 789 791 793 795 796 797 799 800 801 802 803 805 806 807 807 808 809 810 810 811 811 812 812 811 811 811 811
760 761 754 749 754 758 760 760 760 761 761 762 764 764 762 758 752 743 737 738 736 735 746 748 744 751 755 753 753 752 752 755 756 757 759 762 766 767 767 767 768 769 770 771 773 774 773 774 775 777 779 780 782 784 784 785 786 787 788 789 791 793 795 796 797 798 800 801 803 804 805 806 806 807 808 809 810 810 811 812 812 812 812 811 811 812
766 756 747 749 754 756 757 758 758 760 761 761 761 761 759 756 756 750 740 739 740 739 744 744 744 752 755 754 753 751 751 753 754 755 757 759 761 762 763 763 765 767 769 771 774 776 776 776 776 776 778 780 782 784 785 785 786 787 788 790 791 793 794 796 797 799 800 802 803 804 805 806 807 808 809 809 810 811 811 811 812 812 812 812 812 813
759 747 744 749 751 752 754 756 757 757 758 759 757 757 755 752 752 753 747 743 742 745 746 744 750 756 755 757 756 752 753 755 757 759 759 760 761 762 763 763 763 764 766 769 771 773 775 776 776 776 777 779 782 784 784 785 786 787 788 789 791 793 794 795 796 798 800 801 803 804 805 806 807 808 809 810 811 811 812 812 812 812 812 812 813 814
751 742 743 746 748 752 754 755 755 755 759 758 752 749 748 748 749 751 751 748 748 754 752 752 763 767 759 757 758 755 756 758 760 762 760 761 762 762 764 764 764 765 766 767 768 770 772 775 776 776 777 779 781 783 784 785 786 787 788 789 791 792 793 794 796 798 800 801 803 804 805 806 807 808 809 810 811 812 813 813 813 813 814 814 814 815
746 739 739 743 746 751 756 757 753 755 761 758 748 743 744 747 748 749 748 750 756 761 758 755 764 772 764 756 757 758 758 759 761 763 762 762 762 761 762 763 764 765 766 768 770 771 773 774 775 776 777 778 780 782 783 785 786 787 788 788 790 791 792 794 797 799 801 802 804 805 805 806 807 808 809 810 812 813 814 814 814 815 815 815 815 816
743 739 740 744 747 752 756 755 751 752 756 754 747 744 744 745 746 747 746 749 758 759 758 757 758 767 768 759 759 762 761 762 762 763 763 762 762 761 761 762 763 763 764 767 769 771 773 773 774 774 775 777 779 781 783 785 785 786 787 788 790 791 792 795 798 800 802 804 805 806 807 808 809 809 810 811 813 814 815 815 815 816 817 817 817 816
742 740 739 743 748 753 750 744 743 747 747 746 745 745 743 744 747 748 746 750 759 760 760 761 759 767 771 760 758 762 762 764 762 760 760 758 759 761 761 762 763 763 763 765 769 770 771 771 772 773 774 777 779 781 783 784 785 786 787 789 790 792 794 797 800 802 804 806 807 808 809 811 812 812 812 812 814 815 816 816 816 817 817 817 817 817
740 737 735 740 746 747 739 734 738 740 741 740 742 745 745 750 754 754 752 751 759 765 767 767 765 771 774 760 754 759 760 762 760 756 756 755 756 759 760 761 761 762 763 764 768 770 769 770 771 773 775 777 779 780 782 783 785 786 788 791 792 794 797 800 803 804 806 807 808 809 810 812 814 814 814 814 815 816 817 817 817 817 818 818 818 817
737 733 734 735 737 735 730 734 739 736 737 738 741 745 747 753 756 757 761 758 764 774 773 771 769 772 777 765 755 757 757 758 757 753 754 753 754 757 759 759 759 759 762 764 769 771 771 772 772 774 776 777 779 780 781 782 784 787 791 794 796 798 801 803 805 806 807 807 807 808 810 811 814 815 815 814 815 817 818 818 818 818 818 818 818 818
739 734 735 730 727 729 728 734 739 737 739 740 742 748 752 760 762 762 767 766 775 784 776 773 774 773 777 769 760 759 757 759 758 753 752 751 752 756 758 758 758 759 762 765 769 771 772 773 773 774 775 776 778 779 781 783 787 791 794 798 801 802 804 806 806 806 806 806 806 807 808 810 812 814 814 814 816 817 818 819 819 818 818 818 818 818
741 734 734 730 725 726 729 736 741 740 742 742 745 753 761 773 776 776 780 780 782 783 775 774 776 774 775 768 763 764 760 760 758 753 754 752 751 754 756 757 759 760 762 764 768 770 771 772 772 773 774 775 777 778 781 786 789 792 794 796 799 801 802 802 802 802 803 805 806 807 808 809 811 813 813 814 816 817 818 819 819 818 818 818 818 818
745 740 735 732 728 723 727 738 744 744 744 743 745 754 764 778 786 790 797 797 789 780 776 777 776 775 775 769 766 768 765 762 757 754 755 754 754 756 757 759 760 762 763 765 769 770 770 771 770 771 772 774 776 778 782 786 788 789 790 791 792 793 795 795 796 799 802 805 806 808 809 809 810 811 812 813 815 817 819 819 819 819 819 819 818 818
754 752 739 732 731 726 726 731 734 737 742 745 745 749 757 766 773 783 788 787 785 782 780 780 777 777 778 772 768 768 766 762 758 757 757 757 758 758 760 764 766 766 766 768 771 771 771 771 771 772 772 773 775 778 782 785 786 787 788 788 786 786 789 791 794 798 801 804 806 808 809 810 810 811 811 812 815 817 818 819 820 820 820 820 820 820
757 753 735 729 729 727 728 728 726 731 741 750 750 749 753 752 755 773 785 781 779 781 780 780 778 778 776 770 767 768 765 761 759 759 760 761 761 761 764 769 772 774 774 773 773 774 774 773 772 772 773 774 776 779 782 783 784 785 786 786 786 787 791 795 798 800 802 804 806 808 809 810 812 811 811 812 815 817 818 819 820 821 821 822 821 821
755 749 734 730 729 725 728 728 725 731 740 750 752 748 750 748 747 766 786 787 782 780 782 784 780 777 777 772 767 768 766 764 764 763 763 764 763 764 768 768 772 780 782 777 774 774 774 773 772 773 773 775 776 778 781 783 784 785 786 786 787 792 797 801 805 806 804 804 804 805 807 810 813 812 811 812 815 817 818 820 821 822 822 823 823 822
747 747 739 733 731 726 725 726 726 729 734 744 748 744 747 752 750 759 777 787 789 786 786 788 785 781 783 778 771 769 769 768 769 768 767 767 765 767 770 767 770 780 783 779 776 775 774 772 772 772 773 775 776 778 781 783 784 785 787 787 787 792 797 800 805 807 803 802 803 804 806 809 812 812 811 813 816 817 818 820 821 822 822 823 823 823
741 747 743 736 735 730 724 727 732 732 731 737 741 738 744 754 756 761 773 783 789 793 791 791 792 788 783 778 772 770 771 770 771 771 769 769 769 771 771 770 773 779 780 779 776 775 775 773 772 772 773 775 776 778 781 783 785 785 788 789 788 791 794 796 801 803 801 801 804 806 808 808 810 811 810 813 816 817 818 819 820 821 822 823 823 823
741 748 747 737 735 735 731 736 745 742 734 735 739 740 745 752 757 762 770 773 779 792 797 792 792 787 777 773 771 769 771 771 771 773 771 771 773 775 775 774 775 777 778 778 776 775 775 774 774 773 774 776 776 778 781 783 785 785 787 789 788 790 792 794 797 800 800 800 803 806 808 807 809 810 810 811 814 816 816 818 820 821 822 823 823 823
741 749 750 740 736 742 743 744 749 748 743 742 744 747 751 755 761 763 769 773 771 781 792 792 793 787 771 769 769 767 770 770 769 771 772 773 774 776 778 777 776 777 778 777 776 775 775 775 775 776 776 777 777 778 780 782 784 785 786 787 788 790 791 793 795 796 798 799 800 804 806 807 810 810 810 810 812 814 815 817 819 820 822 823 823 823
740 746 749 746 745 749 749 745 744 744 745 747 750 756 759 759 761 763 773 779 771 774 784 787 790 784 768 765 768 767 769 770 769 770 772 774 775 776 778 777 778 780 780 779 778 778 778 777 777 778 777 778 778 779 780 782 784 785 786 787 788 789 790 792 793 794 797 798 800 804 806 808 810 811 811 811 812 814 815 816 818 820 821 822 823 824
739 743 747 752 754 753 750 746 746 745 745 746 750 759 762 759 758 760 768 774 774 779 784 781 785 780 766 766 769 768 770 770 770 772 773 776 778 778 779 778 782 785 785 783 782 781 781 780 779 779 778 778 779 779 781 782 784 785 786 787 787 788 790 791 793 795 797 799 801 804 806 808 810 811 811 811 812 813 814 816 818 819 821 822 823 824
739 745 751 756 758 755 749 745 745 744 745 748 753 758 760 760 761 761 764 767 770 778 779 778 786 779 767 770 772 769 771 772 773 775 776 779 781 781 781 781 785 788 787 784 783 783 782 782 781 781 779 779 779 780 781 782 784 785 785 786 787 788 790 792 794 796 798 800 802 805 807 808 809 809 810 812 812 812 813 815 817 819 821 822 823 825
740 750 753 757 765 766 761 755 749 747 751 757 762 762 760 761 762 764 767 766 768 779 777 774 784 781 771 774 775 771 773 774 776 778 777 779 781 783 783 784 785 786 785 784 784 784 784 783 784 783 782 782 781 781 782 782 784 785 785 786 787 788 791 793 795 797 799 800 802 804 805 806 806 807 809 811 813 813 814 816 818 820 821 822 823 824
744 755 754 754 764 771 771 768 761 758 762 766 767 765 764 763 759 760 765 764 769 782 780 773 779 780 776 778 778 778 778 776 777 779 778 779 780 781 782 782 783 783 783 784 784 785 785 785 786 786 785 785 784 784 784 784 784 785 786 786 787 789 792 794 796 797 798 799 800 801 802 803 804 805 807 810 811 812 813 815 817 820 821 821 822 822
748 759 758 753 756 761 764 765 762 760 765 770 770 767 767 767 763 761 765 767 771 779 779 777 779 779 781 784 784 784 783 780 781 780 779 780 779 779 780 781 782 783 783 784 785 785 786 786 787 787 787 787 787 786 786 786 786 786 787 788 789 791 792 795 797 797 798 798 799 800 801 802 804 805 807 808 810 811 812 814 816 818 819 820 820 821
748 758 761 759 760 761 762 762 761 761 766 770 771 769 768 766 762 760 764 770 774 774 777 782 782 782 788 793 791 790 788 785 785 784 782 783 782 782 782 782 782 783 784 784 785 785 786 786 787 787 787 788 788 788 788 788 788 788 788 789 790 792 794 796 798 798 798 798 799 800 801 802 803 805 806 808 809 810 812 814 815 817 817 818 819 820
750 758 763 764 765 767 767 765 763 765 772 777 777 775 772 767 763 764 771 778 775 772 778 786 788 790 795 797 796 796 794 790 790 790 787 787 786 785 784 784 785 785 785 786 787 787 788 788 788 787 787 787 788 789 789 789 789 790 790 790 791 792 794 796 798 798 798 799 800 801 801 801 802 804 806 807 807 809 812 813 815 816 817 818 818 819
753 761 764 764 767 772 773 770 766 767 776 783 785 783 779 776 775 775 783 789 782 781 790 793 792 799 803 801 800 798 796 794 793 793 793 792 792 790 787 788 789 788 789 789 790 791 791 791 791 790 789 789 788 788 789 789 790 790 791 791 792 793 794 796 797 798 799 799 800 801 801 801 802 804 806 806 807 809 811 813 814 815 816 816 817 817
750 761 764 761 766 774 775 773 771 771 777 781 784 786 783 780 781 783 789 793 787 790 799 794 792 800 804 803 803 800 796 795 794 796 798 798 798 795 793 793 793 792 792 792 792 793 793 794 794 793 793 792 791 790 790 790 791 791 791 792 793 794 795 796 797 798 799 800 800 801 802 802 803 804 805 806 807 809 810 812 814 814 815 815 816 818
748 760 765 761 766 775 776 776 775 773 775 778 783 789 787 783 787 793 799 801 794 791 792 789 793 804 805 804 805 802 799 799 800 801 802 801 800 800 799 799 799 797 796 796 795 795 796 796 796 796 795 795 795 794 794 793 792 792 793 793 794 795 796 797 798 799 800 801 802 803 804 805 805 806 807 808 809 809 810 811 812 813 814 815 816 818
753 757 762 764 769 776 778 778 776 772 774 781 788 796 798 795 796 800 806 810 806 799 794 794 802 810 809 806 807 806 804 805 806 806 805 804 804 803 804 804 803 802 801 800 799 799 799 799 798 797 797 796 796 796 797 797 796 795 795 795 796 796 797 797 798 799 800 801 802 803 804 805 806 807 808 808 809 809 810 810 811 812 814 814 815 816
757 755 762 768 769 774 781 780 777 776 781 791 798 801 801 800 799 802 811 816 813 808 805 806 810 812 811 810 810 809 809 809 810 809 808 807 807 806 806 806 805 805 804 803 803 802 803 803 801 799 798 798 798 798 798 799 799 798 797 797 797 798 798 798 799 799 799 800 801 802 803 804 805 806 806 807 807 808 809 810 811 811 812 813 813 814
757 757 766 772 771 778 784 780 778 784 792 800 806 804 802 804 803 805 814 818 814 812 812 811 812 812 811 812 812 812 812 812 812 811 810 809 809 808 807 807 807 807 806 805 805 804 804 805 804 802 800 800 800 800 800 801 801 800 800 799 799 799 799 799 799 799 799 799 800 801 801 802 803 803 804 805 806 807 808 809 810 810 811 811 811 811
757 760 767 773 778 783 784 779 782 795 804 806 806 805 805 806 802 801 810 817 817 816 815 812 814 815 813 812 812 812 813 813 812 813 813 812 812 810 810 810 809 809 808 807 807 806 806 806 806 805 803 803 803 803 803 803 804 803 802 801 801 801 800 800 799 799 799 799 799 800 800 801 802 802 803 804 805 806 807 808 809 809 810 810 810 811
758 760 763 770 780 783 784 792 803 809 810 807 805 807 808 807 804 804 812 819 819 818 818 815 815 816 814 813 813 813 813 812 812 814 815 815 815 814 813 813 811 810 810 809 808 807 807 807 806 806 805 805 805 804 804 804 804 804 803 802 802 802 802 801 800 800 799 799 799 800 800 801 801 802 803 804 805 805 806 807 808 808 809 809 809 810
761 762 760 765 781 786 788 803 817 815 809 807 807 808 808 809 810 809 811 818 819 818 820 818 816 816 816 814 815 815 813 811 813 817 817 817 817 816 815 814 813 812 811 810 809 808 807 807 807 807 807 806 805 805 804 804 804 804 803 802 802 803 803 802 801 801 800 799 799 800 800 801 801 802 802 803 804 804 805 806 806 807 808 808 808 809
765 768 765 764 778 785 780 787 803 809 809 811 811 809 807 810 813 809 810 818 821 819 819 818 816 817 817 816 817 816 813 814 818 820 819 818 819 818 817 816 814 813 812 811 810 809 808 808 808 807 807 807 806 806 805 804 804 804 803 801 800 801 802 802 802 802 801 800 800 800 801 801 802 802 802 802 802 803 804 805 805 806 807 808 808 809
770 774 773 770 778 784 780 788 805 813 814 814 812 808 808 811 811 808 810 817 821 820 820 819 817 818 819 819 819 818 817 820 822 821 819 819 820 819 818 817 815 814 813 812 811 810 809 808 807 806 806 806 806 806 805 804 804 803 803 802 800 800 801 801 801 801 801 801 800 800 801 802 802 802 802 802 802 802 803 804 805 805 806 807 808 808
782 783 785 785 788 790 792 805 818 819 814 811 810 810 810 808 807 808 813 818 821 821 821 820 818 819 820 819 819 820 821 822 822 820 820 820 819 818 818 817 816 815 813 812 811 810 808 807 806 806 805 805 805 805 804 803 803 803 802 802 801 800 799 799 799 799 799 800 799 800 800 801 801 801 801 801 801 801 802 803 803 804 805 806 806 807
792 794 795 796 799 800 804 814 822 819 814 812 811 810 808 806 809 815 819 820 821 822 821 821 820 820 820 819 820 821 820 820 821 821 821 820 819 818 817 816 815 814 812 811 810 809 808 807 806 805 804 804 804 803 803 802 801 801 800 800 799 798 797 797 797 797 797 797 797 797 797 798 798 798 799 799 800 800 801 801 802 803 803 804 805 806
799 801 803 804 805 807 810 816 819 819 817 813 810 812 813 815 820 823 822 822 822 822 822 821 820 821 820 820 820 820 820 820 820 820 820 819 818 817 816 815 814 813 811 810 809 809 808 806 805 804 804 803 802 802 802 801 800 799 798 798 797 796 796 795 794 794 794 793 793 794 794 795 795 796 796 797 798 798 799 800 800 801 802 803 804 805
800 801 804 808 809 809 813 820 822 822 821 816 813 816 820 821 822 823 822 822 823 822 822 822 821 822 822 821 821 821 820 820 820 820 820 818 817 816 814 813 812 811 810 809 808 807 807 806 805 804 803 802 801 801 800 799 798 797 797 796 796 795 794 793 793 792 791 791 791 791 791 792 792 793 794 795 795 796 797 798 798 799 800 801 802 803
804 802 804 811 816 816 817 823 825 824 823 819 817 820 822 822 822 822 822 824 824 824 823 823 823 823 823 823 822 822 821 821 821 820 820 818 818 817 815 813 812 810 809 807 806 805 804 803 802 801 800 800 800 799 798 798 797 796 795 794 794 794 793 792 792 791 790 789 789 788 788 789 790 790 791 792 793 793 794 795 796 797 797 799 800 801
807 805 806 813 820 820 820 823 824 823 823 822 821 822 823 822 823 823 823 824 826 825 825 825 825 824 824 824 823 823 822 822 821 821 820 819 818 817 815 814 813 811 809 808 806 804 802 801 799 798 797 797 797 797 797 796 795 794 793 793 792 792 791 791 790 790 789 789 788 787 786 786 787 788 789 789 790 791 791 792 793 794 795 796 798 799
806 805 808 813 818 820 823 825 825 823 824 823 823 824 824 823 824 824 824 826 827 826 826 826 825 825 825 824 824 824 823 823 822 821 820 819 818 817 815 814 813 811 810 809 807 805 803 801 799 797 796 794 794 795 794 794 793 793 792 791 791 790 789 789 788 788 787 787 787 787 786 785 785 785 786 787 787 788 789 790 791 792 793 794 795 797
807 805 809 815 818 820 823 824 824 825 826 826 825 825 825 825 826 826 826 826 826 826 826 826 825 825 825 825 825 825 824 823 822 821 820 819 817 816 815 813 812 811 809 808 807 805 803 801 799 797 796 794 793 792 792 791 790 790 789 789 789 788 787 787 786 786 785 785 785 785 785 784 784 783 783 784 785 786 786 787 788 789 791 792 793 794
810 808 813 818 822 824 824 823 825 828 829 828 828 827 826 826 827 827 827 827 826 826 826 825 825 825 825 825 825 824 823 823 822 821 819 818 816 815 813 812 811 809 808 806 805 804 802 800 798 796 794 792 791 790 789 787 787 786 786 786 785 785 784 784 784 783 783 783 783 782 783 783 782 782 782 782 782 783 784 785 786 787 788 790 791 792
812 813 817 819 820 821 821 821 824 826 826 827 828 828 827 827 828 828 828 827 827 827 827 826 826 826 825 825 824 823 823 822 821 820 819 817 815 814 812 810 809 807 806 804 803 802 800 798 796 794 792 790 789 788 786 785 783 783 782 782 782 782 781 781 781 781 780 780 780 780 780 780 780 781 781 781 781 781 782 783 784 785 786 787 789 789
812 813 815 815 815 817 817 819 822 822 823 826 828 827 827 828 827 827 828 827 827 827 827 826 826 826 825 824 824 823 822 821 820 819 817 815 814 812 810 809 807 805 803 802 801 799 797 796 794 792 789 787 786 785 783 782 780 779 779 779 779 778 778 778 778 777 777 778 778 777 777 777 778 778 779 779 779 779 780 781 782 783 784 785 786 787
Wind_Speed
3 1 2 4 6 7 7 7 7 4 5 4 3 3 4 5 5 6 6 7 2 4 1 4 6 4 8 8 8 8 7 6 6 6 7 8 7 7 8 9 9 9 7 9 12 13 15 13 13 15 16 16 16 17 21 24 25 26 27 27 26 24 23 23 23 22 20 18 17 16 14 13 12 12 10 10 9 7 6 5 6 6 6 6 6 4
4 2 6 9 10 8 5 4 4 1 2 2 3 3 4 4 6 6 4 7 2 5 3 1 8 5 7 8 7 8 8 8 10 10 10 10 8 8 9 9 9 6 5 6 8 12 17 16 17 19 18 19 20 20 24 27 28 29 29 29 28 26 25 25 24 23 20 18 17 18 17 16 14 13 10 10 9 7 7 6 6 6 6 6 6 6
2 3 11 9 6 4 3 4 4 3 2 1 2 2 2 3 5 7 4 6 4 4 2 2 9 4 3 4 6 9 10 8 11 13 13 13 12 9 10 10 8 7 6 6 6 10 16 18 21 22 20 22 22 22 25 28 30 30 30 30 29 28 27 25 23 22 20 17 16 16 16 16 14 13 10 9 8 7 7 6 6 5 5 5 6 6
1 6 9 4 6 5 2 2 4 0 1 1 3 2 2 4 1 3 5 7 6 3 2 4 6 1 3 1 4 6 4 4 8 11 9 10 12 11 12 11 10 11 9 8 6 7 12 15 19 21 22 24 23 22 24 28 30 31 31 30 29 28 26 23 21 19 19 18 17 15 15 15 14 14 13 11 9 7 6 5 5 4 4 4 5 6
6 9 4 4 6 6 3 2 2 2 3 3 4 4 3 4 3 4 4 6 6 5 4 6 5 4 3 2 5 5 2 2 6 7 6 7 7 6 7 8 10 10 10 10 10 10 11 13 16 21 24 24 23 23 25 29 31 31 31 30 29 29 26 23 21 20 20 20 19 17 16 15 13 14 14 12 10 9 7 6 5 5 5 5 6 6
8 8 1 1 2 6 5 4 4 6 3 4 4 7 7 6 5 3 3 4 5 6 4 4 4 3 4 0 5 4 2 4 5 6 8 7 5 5 7 8 8 7 7 9 10 10 11 12 15 19 22 23 23 24 27 30 31 32 32 31 30 29 27 24 22 22 21 21 21 20 19 16 15 13 12 11 10 9 9 8 7 7 7 6 7 7
5 4 1 4 5 5 5 4 5 7 4 2 5 7 6 5 3 1 4 4 2 1 3 3 5 2 5 3 3 4 6 7 5 6 6 6 6 6 7 8 8 8 7 7 7 8 9 12 14 17 22 24 25 26 29 30 31 32 32 31 32 30 28 26 24 23 23 23 23 22 21 19 17 15 12 10 9 9 9 9 9 8 7 6 6 7
3 4 3 1 2 4 4 4 6 8 7 3 5 5 6 5 4 2 5 5 2 3 3 5 5 3 2 4 5 2 5 6 5 6 5 6 7 6 6 7 7 8 8 7 8 8 9 12 16 19 24 27 28 28 28 29 31 32 32 32 32 30 28 27 25 23 23 24 24 23 21 20 18 15 13 12 11 10 9 9 8 7 7 7 7 7
2 2 3 1 2 3 5 6 8 9 5 6 5 6 5 5 4 3 6 4 1 1 2 6 3 3 3 5 5 2 5 5 7 8 8 9 9 7 6 7 7 7 8 8 8 9 10 14 19 23 26 27 28 29 29 30 31 30 31 32 31 29 28 27 24 22 23 25 25 23 22 20 17 14 14 14 12 10 9 9 8 8 7 8 8 9
3 5 5 4 4 5 7 6 9 10 4 4 5 5 4 5 4 4 5 3 3 3 2 6 3 2 3 5 4 3 3 4 7 8 9 10 9 8 7 6 8 7 7 7 6 8 11 16 19 21 23 25 27 30 30 30 29 29 29 30 29 28 26 24 22 21 23 25 25 24 23 20 18 17 16 15 13 11 10 10 9 8 8 8 9 10
5 3 3 5 4 6 6 4 6 8 5 3 5 5 6 5 5 4 3 4 5 2 5 7 2 3 1 5 3 0 1 4 5 5 6 8 8 8 7 7 8 8 7 7 6 5 8 11 15 19 22 24 26 28 28 29 30 29 26 24 21 20 20 19 19 22 25 27 27 25 24 21 20 20 18 16 16 14 13 11 10 9 8 8 9 10
7 4 1 3 3 4 4 3 1 1 2 4 4 4 4 2 5 4 4 4 4 2 6 6 1 4 2 4 4 4 5 5 5 6 7 9 9 8 7 7 6 6 7 6 6 5 6 8 12 17 20 22 23 25 26 25 23 18 14 12 12 12 14 16 20 24 27 28 28 26 24 23 22 21 19 19 18 16 14 13 12 10 9 9 10 11
4 4 4 5 3 4 5 2 1 5 5 5 5 5 4 1 3 1 2 2 2 3 4 3 1 2 4 5 5 7 7 5 3 4 4 7 8 8 8 7 5 5 7 6 6 6 6 7 10 15 18 20 21 23 22 18 15 15 16 16 15 15 18 21 25 28 28 27 27 26 24 23 23 22 19 19 19 17 16 14 13 12 11 10 11 11
3 5 5 4 3 1 6 5 2 1 1 3 5 4 4 3 2 1 3 1 1 3 3 3 0 0 3 3 5 8 7 4 2 5 4 3 4 5 5 4 5 5 5 5 5 5 6 6 9 14 18 19 20 20 18 15 16 19 22 25 26 25 25 27 28 28 27 26 26 25 24 24 24 23 19 18 17 17 16 14 14 13 12 11 11 12
2 3 3 3 2 1 4 5 6 5 3 2 4 6 4 4 4 3 3 3 2 2 2 3 0 2 1 2 5 6 3 3 6 7 8 8 7 8 8 8 6 5 5 4 3 1 1 5 9 13 15 17 18 17 15 17 19 22 24 28 33 33 31 31 30 28 26 26 25 24 24 24 24 22 19 17 16 16 16 14 14 14 12 12 11 12
4 3 6 4 2 2 2 3 4 6 3 1 2 5 3 4 5 2 2 5 4 2 0 2 2 2 2 2 5 4 2 7 8 8 10 9 8 10 10 9 8 7 6 4 4 4 3 2 7 11 13 15 16 15 16 19 21 22 24 28 31 31 29 25 23 24 25 24 24 24 25 25 24 22 18 16 16 16 15 14 14 14 12 11 11 12
2 4 7 5 3 2 3 3 2 4 2 1 2 3 4 3 7 5 1 1 4 3 1 1 2 1 1 1 5 4 5 7 7 8 9 8 9 10 8 8 8 5 4 2 3 2 2 3 2 9 13 15 16 16 16 18 20 22 24 24 24 23 23 18 13 16 20 22 24 26 26 25 24 22 18 16 17 16 15 14 13 13 12 11 12 12
4 2 6 2 2 2 1 3 4 3 5 4 2 5 2 2 5 5 2 3 5 2 3 2 1 1 2 1 4 5 4 4 5 5 5 6 9 9 7 8 8 4 4 2 3 3 3 5 4 5 10 14 16 18 18 18 18 19 20 21 25 24 23 21 17 20 23 23 23 26 27 25 25 23 17 14 15 15 15 15 13 13 13 12 13 13
4 1 7 2 2 5 5 6 4 4 3 4 4 3 4 3 1 2 3 2 2 2 2 3 1 2 2 2 3 0 3 3 2 2 3 4 4 5 7 9 9 7 4 1 3 4 3 6 7 6 7 10 13 15 16 16 16 17 18 20 22 20 21 24 24 26 28 25 21 22 24 24 26 25 18 15 17 17 16 16 15 14 13 13 14 14
3 3 4 4 2 3 5 5 2 5 5 3 2 3 3 3 4 2 3 3 4 3 2 1 2 2 4 4 4 4 6 6 5 3 3 3 2 2 3 6 7 6 4 4 4 4 4 7 9 8 8 8 11 12 14 15 15 16 17 19 19 17 20 25 26 27 29 27 23 24 26 26 28 26 20 18 19 18 17 17 17 16 16 15 15 15
3 3 3 5 3 2 2 0 3 2 2 3 3 3 2 2 3 2 1 2 4 4 3 2 0 4 5 3 5 6 6 7 8 6 5 4 4 3 2 3 4 4 3 3 4 4 4 7 10 10 9 9 10 11 12 14 15 15 16 18 19 20 22 25 24 25 29 29 27 27 27 28 29 26 22 20 19 19 18 19 19 19 18 18 17 16
2 3 3 1 3 2 1 2 1 3 3 4 3 1 2 3 4 4 1 1 1 4 4 5 2 6 5 3 4 4 4 7 7 7 6 4 5 5 3 4 4 3 1 2 4 4 4 6 9 11 11 10 10 10 10 12 14 15 16 17 19 21 22 23 23 24 26 28 26 24 23 25 27 25 22 21 20 19 18 20 22 21 21 22 21 19
3 4 3 1 0 2 2 2 3 1 5 6 4 2 3 3 3 5 4 3 1 3 2 4 2 5 5 2 2 2 2 4 4 6 6 5 4 4 4 5 3 1 2 2 3 3 4 6 8 10 12 11 10 9 9 10 12 13 15 16 18 19 20 22 22 20 22 25 25 21 19 21 24 23 22 22 22 19 18 21 22 22 22 24 23 23
2 4 3 0 3 3 4 4 4 4 6 6 3 2 3 1 2 5 5 3 3 3 2 4 1 4 5 5 3 1 3 4 5 5 6 6 4 3 5 6 5 4 4 4 4 3 5 7 8 9 10 10 9 8 7 8 9 11 13 15 17 18 18 19 19 17 18 22 21 17 15 17 20 22 22 23 23 20 18 20 21 21 21 22 23 24
1 1 3 3 1 2 4 4 5 5 4 3 3 4 3 3 3 2 1 3 3 3 4 5 2 6 4 5 5 5 6 6 5 4 6 6 5 5 5 6 6 6 5 5 5 4 5 6 6 7 8 8 8 7 6 6 6 8 11 13 15 16 16 17 17 16 16 17 17 17 17 18 19 21 22 22 21 18 17 18 19 21 21 22 24 24
2 2 3 5 4 4 2 1 2 1 2 2 3 6 5 4 5 2 2 4 2 2 3 5 4 4 4 6 7 6 5 6 5 4 4 5 6 6 6 6 6 6 6 6 6 5 5 5 5 6 7 7 7 6 5 5 5 6 8 11 12 12 13 14 15 14 15 15 16 17 19 20 19 19 20 21 21 20 20 19 19 21 23 24 24 23
4 2 2 5 5 5 5 4 3 2 4 1 2 5 5 4 4 4 4 3 3 3 2 1 4 3 3 6 7 6 4 3 3 4 4 4 5 6 5 5 5 5 5 6 6 6 5 5 5 6 8 8 8 6 5 4 4 4 6 8 9 8 10 12 12 12 14 15 16 16 17 18 18 17 17 18 19 20 20 18 19 21 24 24 23 22
5 3 1 5 4 2 4 2 1 4 5 3 1 3 4 3 5 7 4 2 4 5 1 5 1 5 2 6 6 6 6 3 3 2 0 1 1 0 1 3 4 4 5 5 6 6 6 6 5 7 10 10 10 9 7 5 4 4 4 6 7 7 7 9 12 13 13 13 15 15 15 17 17 16 16 16 16 16 16 17 20 21 21 20 20 20
6 1 1 3 5 4 3 4 5 6 5 3 3 3 3 3 5 6 2 1 3 5 4 2 5 6 3 6 6 5 4 3 4 4 3 3 4 4 5 5 5 4 3 3 4 4 4 5 5 8 12 13 14 13 11 9 7 5 4 4 6 7 7 7 10 13 14 14 14 14 14 18 19 16 15 16 16 15 16 18 18 19 19 20 20 19
4 1 1 3 4 5 4 3 7 8 5 4 5 4 3 5 7 7 3 2 6 6 4 7 11 7 3 4 5 6 4 3 5 6 7 7 7 6 7 7 6 6 5 4 4 4 3 2 2 2 7 11 15 16 15 14 12 9 7 5 5 6 7 7 7 9 11 11 11 10 9 13 15 13 13 15 17 17 19 19 19 19 20 20 20 20
3 2 1 3 4 3 4 4 7 9 7 6 6 5 4 7 7 6 4 3 6 6 3 8 11 6 4 4 5 5 4 7 9 10 9 8 8 8 9 8 7 7 6 5 6 6 5 5 6 6 5 3 6 11 14 16 15 13 11 9 7 6 6 6 6 7 8 9 8 8 8 9 11 12 13 15 16 17 18 19 18 17 17 16 16 18
4 2 1 5 4 0 2 3 6 7 8 8 6 7 6 5 5 4 3 3 2 5 5 7 8 2 4 4 5 6 9 11 11 9 9 8 8 9 9 8 8 7 6 6 7 7 7 6 6 8 9 6 2 2 7 11 14 14 13 11 9 8 7 7 6 7 7 8 9 11 12 12 13 14 16 17 16 14 14 14 13 12 12 12 12 13
3 4 2 4 4 2 3 1 3 5 6 3 2 3 3 3 6 5 5 6 4 3 5 4 3 1 4 3 5 8 10 11 9 7 7 7 8 8 8 8 8 7 7 7 7 7 7 6 8 11 13 13 10 5 1 3 8 11 11 11 10 9 8 8 6 6 7 7 8 10 11 11 12 14 15 15 14 12 11 11 10 8 7 6 5 4
3 4 3 2 4 3 5 3 3 3 1 3 5 2 1 4 8 9 6 6 6 5 4 3 3 3 4 4 6 8 8 8 6 6 6 6 7 7 7 7 7 7 7 7 7 7 9 10 12 14 16 18 17 13 10 8 5 3 6 8 8 8 7 7 7 7 7 6 5 5 6 6 7 8 9 9 9 9 9 9 8 7 6 5 4 3
3 4 3 2 4 2 2 5 4 1 3 1 3 3 4 5 11 15 9 6 7 7 5 6 6 5 4 4 4 6 7 6 5 7 8 7 7 7 7 7 7 7 6 6 6 7 8 11 15 17 17 17 16 14 14 15 13 7 3 2 4 4 4 4 4 4 4 4 3 3 4 4 3 4 6 7 8 8 8 8 6 5 4 2 2 2
4 3 3 2 3 2 1 4 2 4 2 2 4 3 4 2 6 11 9 8 7 5 4 5 5 4 4 4 3 1 3 4 5 7 8 9 8 8 7 7 6 6 5 6 7 8 8 7 7 10 12 12 11 11 15 17 15 11 8 4 2 2 2 2 2 1 2 4 4 4 4 3 3 5 7 7 7 6 6 5 4 3 2 1 1 2
6 4 3 2 2 3 3 2 1 0 0 1 3 1 1 1 2 4 5 3 4 4 3 3 4 5 4 4 4 3 2 4 6 6 7 8 8 7 7 8 9 10 11 12 14 16 16 12 5 3 4 5 6 7 13 16 15 13 11 8 7 5 3 2 3 3 1 1 3 4 5 5 5 6 7 8 7 6 5 4 3 3 2 1 2 4
4 3 4 4 2 3 5 3 2 1 3 5 4 4 2 3 4 3 6 2 3 4 3 2 4 5 4 4 6 4 3 5 4 4 6 7 7 7 8 10 12 13 15 17 18 19 21 20 15 8 5 8 9 7 11 13 13 14 14 13 13 13 9 6 5 3 4 4 2 1 2 5 6 7 8 10 9 7 6 5 5 5 4 4 6 7
6 2 3 4 2 2 5 4 3 3 4 5 5 7 6 4 3 4 5 1 3 5 3 3 6 5 4 4 5 4 5 3 1 4 4 5 6 6 6 8 11 12 13 14 15 16 17 18 18 16 13 14 14 13 13 12 11 14 14 13 14 15 14 12 11 7 5 3 2 3 4 3 4 6 8 10 10 9 8 7 7 6 6 6 7 7
7 4 4 4 2 2 4 3 2 2 3 4 5 6 7 3 4 6 2 4 3 4 4 3 6 4 4 5 4 5 5 2 3 4 4 4 6 6 5 6 8 10 11 13 13 13 15 16 17 16 16 16 15 16 15 13 10 11 14 14 13 15 16 16 14 11 10 9 7 5 6 5 4 4 5 6 7 7 7 7 6 6 7 7 7 7
4 3 3 3 3 3 4 3 1 1 2 3 4 5 7 3 4 4 4 6 3 1 2 3 5 3 4 5 4 3 2 3 3 3 4 4 5 6 7 9 10 9 10 11 12 13 14 15 15 14 14 15 15 16 16 14 13 11 10 12 15 17 18 16 16 15 15 14 11 10 9 8 7 6 6 5 5 5 5 4 4 5 7 8 8 8
3 3 2 2 3 2 3 4 2 0 2 4 3 4 5 2 2 2 2 2 2 2 1 3 3 2 3 3 2 3 3 4 3 4 4 4 4 6 8 10 12 13 13 13 13 13 14 14 14 14 14 15 15 16 16 15 14 13 13 13 14 16 17 16 15 15 15 15 14 13 12 11 11 10 9 8 7 6 4 3 2 2 3 6 9 9
1 2 2 2 2 2 3 3 2 2 2 5 4 3 4 2 3 2 1 2 1 2 3 2 1 2 2 0 2 4 4 5 5 4 5 5 5 7 9 11 11 12 13 15 15 14 14 13 13 13 13 14 15 15 14 14 14 13 13 13 13 14 16 17 17 16 17 18 18 17 15 14 13 12 11 9 8 7 6 4 3 3 3 4 8 9
2 1 1 0 1 1 2 2 2 1 3 5 3 3 3 2 1 2 1 1 1 1 1 2 1 2 3 2 3 4 3 4 5 5 5 6 6 8 11 14 14 15 15 16 16 16 14 13 13 13 13 13 13 14 13 13 13 13 12 13 13 13 13 14 14 14 15 17 18 17 16 15 14 13 13 12 11 10 8 7 6 5 5 5 8 10
2 2 3 1 2 2 3 2 2 2 2 4 4 3 2 3 2 1 3 2 2 2 2 2 3 3 2 2 3 3 3 4 6 6 6 6 6 8 11 15 17 19 20 21 21 20 18 16 15 15 15 14 13 12 12 12 12 13 14 13 13 13 13 13 13 12 13 15 17 18 18 17 16 15 14 13 13 12 11 9 8 8 7 8 9 11
2 3 4 3 3 4 5 3 3 2 1 3 4 3 3 3 3 2 4 3 2 3 3 3 3 4 4 2 2 3 3 5 5 6 6 6 6 9 12 14 16 18 20 21 21 21 20 19 18 17 17 16 14 12 12 12 12 14 16 16 15 15 14 14 15 15 14 13 13 14 16 17 16 15 14 13 13 12 11 11 10 9 9 9 8 10
2 2 4 4 3 3 3 2 3 2 1 1 2 3 4 4 3 3 4 3 2 3 3 3 3 3 3 3 3 3 5 5 4 5 5 5 6 8 11 12 14 16 17 18 19 20 20 20 19 19 19 19 18 15 14 14 13 14 15 17 17 17 17 16 16 16 16 16 14 12 12 13 14 14 13 12 13 13 13 12 11 10 10 10 10 10
2 3 4 3 3 2 2 3 3 3 1 1 2 1 2 2 3 3 3 3 2 3 3 4 4 3 3 4 4 4 4 5 4 5 5 5 6 8 10 12 14 16 17 19 20 21 21 21 21 21 21 22 22 20 19 19 19 17 17 17 17 18 19 18 16 16 16 16 16 15 13 12 12 12 11 11 11 12 12 12 12 12 12 12 11 11
2 3 2 3 3 2 1 1 2 2 1 3 2 1 2 2 2 3 3 3 3 3 4 6 6 6 5 4 4 4 5 5 5 6 6 6 7 9 12 13 15 17 18 19 20 21 21 21 22 22 23 23 23 22 21 22 21 20 19 17 16 16 17 17 16 15 16 16 17 16 16 14 13 12 11 11 11 11 11 12 12 13 13 12 12 12
2 2 1 3 4 0 3 2 4 4 2 3 2 2 4 3 3 4 2 2 3 3 2 3 5 5 5 4 4 4 4 5 7 8 7 7 9 12 14 16 17 19 19 20 21 21 21 22 22 22 23 24 24 23 23 23 23 21 18 16 15 15 15 16 16 16 16 15 15 16 16 16 16 15 14 14 13 12 12 13 14 15 15 14 15 16
2 3 3 4 3 4 5 4 4 4 2 3 3 2 2 2 4 4 3 2 2 2 3 3 2 3 4 5 6 7 5 7 9 10 8 9 13 15 16 17 18 19 20 21 21 21 21 21 22 23 24 25 24 24 25 27 27 26 23 21 19 18 17 18 18 19 19 17 16 14 13 14 17 18 17 16 15 14 14 14 14 15 16 16 17 16
Wind_Direction
113 133 259 220 221 217 208 197 200 195 147 176 241 223 249 266 274 271 266 288 266 141 222 192 149 150 172 166 157 153 150 151 149 154 166 172 175 179 184 187 188 187 186 190 189 172 169 180 187 184 176 171 176 186 188 182 180 181 182 183 181 181 184 182 176 175 175 175 174 173 166 159 157 157 159 156 151 147 140 125 115 111 102 99 98 100
78 152 236 224 219 212 189 190 217 237 157 199 227 222 261 250 264 281 281 310 342 110 335 124 127 148 172 158 156 152 161 174 168 171 177 179 185 187 188 190 187 181 162 163 167 162 167 174 177 178 174 171 171 171 172 170 170 172 173 173 170 171 174 173 171 173 176 177 176 175 169 165 165 165 167 163 159 157 151 138 121 116 115 111 107 106
30 234 244 233 207 182 132 138 166 210 214 205 193 178 279 260 282 302 305 324 354 88 349 157 131 141 195 177 180 173 180 189 179 180 181 177 181 188 191 189 182 174 165 163 162 165 172 173 173 174 173 172 172 169 166 164 164 163 164 165 164 166 169 172 173 174 175 174 174 174 169 166 165 165 167 163 158 155 151 145 131 122 126 121 110 110
263 246 239 197 135 154 210 167 145 219 338 197 205 164 273 276 306 299 302 336 355 45 111 128 112 38 330 4 216 216 200 191 189 185 181 180 184 189 191 188 180 178 175 168 162 170 180 178 173 172 171 171 172 172 167 162 162 162 164 165 165 167 170 171 173 176 175 172 173 172 165 161 157 154 154 153 149 151 147 137 131 131 147 150 133 124
243 248 223 110 123 156 207 235 176 245 292 263 223 169 203 262 234 223 286 339 356 6 55 83 56 341 358 86 217 259 22 121 191 181 178 195 196 191 187 188 185 182 178 171 171 178 181 182 178 171 170 171 174 176 171 167 167 167 168 169 168 170 171 171 174 177 175 173 175 171 163 160 156 152 154 154 149 151 148 132 120 117 126 140 139 141
254 258 198 184 195 154 175 233 207 194 228 292 246 199 191 211 237 254 341 18 28 7 2 66 69 301 322 32 209 240 132 155 187 194 194 192 188 185 183 189 186 180 184 182 178 179 176 177 176 171 169 172 178 180 176 173 174 173 173 172 171 172 171 172 175 179 178 178 178 174 168 168 165 162 168 168 160 155 151 140 130 123 121 124 124 130
262 286 84 241 244 160 164 235 225 171 151 291 242 203 176 164 209 284 63 70 80 318 321 56 116 215 314 322 243 242 199 183 185 210 208 188 200 204 189 187 180 177 185 183 177 175 171 170 170 171 174 178 183 184 180 178 177 177 176 174 174 173 171 172 176 180 183 181 179 179 177 178 178 176 176 176 169 162 155 146 141 134 126 125 125 124
248 321 9 251 228 151 162 230 219 155 132 242 231 152 129 137 176 165 97 94 169 214 326 11 96 126 313 278 279 278 181 192 209 218 221 207 213 217 200 188 175 176 179 176 177 174 171 174 175 177 179 183 186 185 183 181 180 179 178 178 177 173 171 174 178 182 186 183 179 180 180 181 185 183 173 168 168 167 165 161 158 153 133 123 123 124
232 293 292 189 136 163 197 212 185 149 150 239 200 137 128 138 150 131 99 91 37 91 320 327 38 95 271 272 306 15 143 198 223 215 218 216 210 211 208 188 168 172 178 178 182 176 176 182 182 181 181 184 187 186 186 185 183 182 181 181 178 173 172 177 182 185 188 187 183 181 182 181 181 177 165 162 169 175 179 178 174 169 151 129 118 118
250 231 216 159 149 203 223 214 168 156 195 226 151 110 70 71 75 72 92 95 34 58 228 285 347 100 272 289 319 17 104 205 230 224 221 217 207 199 197 185 171 170 174 180 187 186 186 186 183 181 181 184 188 189 188 188 186 184 184 184 179 174 175 180 186 188 189 188 187 185 184 179 174 169 163 162 169 176 179 177 171 168 161 145 128 121
286 282 174 155 181 205 209 197 166 169 183 136 96 70 57 41 28 36 54 77 63 12 252 263 291 109 253 284 276 228 166 218 227 233 226 215 209 197 186 186 182 171 166 171 181 186 179 176 177 178 181 186 190 191 189 188 188 185 185 184 174 170 176 183 189 191 191 190 190 190 187 180 173 170 166 164 167 172 175 174 170 168 164 155 147 138
325 335 244 244 211 166 143 139 122 35 66 92 82 75 89 23 10 26 357 40 89 255 259 257 336 95 178 266 278 263 265 250 214 211 214 202 197 189 176 182 184 167 155 158 170 168 151 156 170 176 183 188 190 192 192 189 182 168 156 145 135 145 170 185 191 192 193 193 193 192 188 181 177 175 171 168 169 174 179 178 175 176 170 159 156 155
307 258 282 303 252 143 114 130 334 10 35 83 93 82 97 48 12 29 311 1 145 232 256 251 78 104 219 247 288 298 298 291 222 200 217 199 184 174 171 173 166 152 150 157 171 170 161 168 175 179 184 188 190 194 192 179 152 136 136 141 148 162 177 189 194 194 193 193 193 191 187 184 180 178 175 173 175 180 185 186 183 183 181 173 165 163
291 299 321 317 282 174 130 147 206 268 80 126 131 123 125 108 81 223 262 315 210 235 272 289 62 192 275 288 320 323 313 303 73 88 81 94 121 126 128 123 114 121 135 146 164 174 184 189 185 185 187 189 193 193 183 158 145 152 161 169 175 180 187 193 194 192 191 192 192 192 191 188 184 180 179 179 180 184 190 194 194 193 192 190 180 170
153 313 284 202 250 239 161 173 168 153 146 175 158 134 142 152 147 198 218 177 196 222 278 303 238 156 209 299 319 320 321 39 61 69 76 74 78 84 72 57 57 67 75 80 89 93 241 215 199 194 191 193 194 188 169 154 159 165 168 177 182 184 190 194 192 189 189 192 192 192 193 191 187 185 181 182 186 188 194 201 202 202 204 204 193 179
135 239 254 249 255 164 193 236 147 115 100 254 129 108 148 186 147 133 174 169 170 139 143 257 208 193 206 287 315 321 49 68 72 71 75 80 79 80 76 62 44 31 38 58 68 44 354 274 212 203 196 195 195 185 165 160 170 172 173 184 185 182 188 192 190 187 188 192 192 192 194 192 191 189 183 185 191 193 199 207 210 211 213 211 200 187
118 254 277 313 339 141 178 226 131 109 152 211 107 152 216 181 120 108 138 95 78 104 228 238 170 320 14 322 324 4 50 57 71 81 87 98 96 89 93 91 72 25 340 11 85 88 36 38 199 207 200 195 194 190 174 167 177 178 179 183 171 169 187 192 189 186 183 188 192 193 194 192 195 195 187 189 195 197 205 211 214 217 218 215 205 195
143 246 288 335 52 333 144 114 63 71 125 125 183 196 189 78 91 101 104 20 46 130 268 332 157 208 102 164 318 19 64 44 40 67 89 100 104 112 120 115 118 159 253 291 66 74 56 57 75 178 195 195 195 195 185 174 181 183 180 171 151 156 186 195 195 197 192 192 193 193 193 194 202 200 187 193 203 202 210 215 216 219 218 213 207 203
123 153 289 286 168 309 2 69 38 345 72 121 190 182 102 103 144 91 117 126 104 167 276 343 320 222 170 210 282 72 166 171 57 58 91 85 89 121 129 126 138 160 181 150 77 65 56 56 63 105 162 185 191 195 187 175 181 186 182 173 163 168 189 195 199 201 197 195 191 194 198 201 207 203 187 193 207 207 210 214 216 218 217 211 208 208
92 130 266 284 238 314 9 54 43 316 344 34 40 15 47 127 158 156 140 145 143 160 218 335 6 265 223 218 214 222 220 184 158 173 162 124 77 72 132 137 140 146 148 136 108 88 78 71 71 93 131 165 180 188 185 174 179 188 188 189 190 188 185 189 199 200 195 190 188 197 206 207 209 205 192 192 203 207 210 214 217 219 220 216 211 210
56 113 209 284 326 33 17 104 169 197 323 16 32 7 3 71 114 143 96 91 130 139 169 158 58 268 254 208 197 230 230 191 171 172 169 143 116 88 70 99 101 111 122 111 99 86 76 81 84 97 120 148 169 182 185 179 179 185 190 192 194 190 184 188 198 199 196 192 191 200 210 211 209 206 198 192 198 206 213 218 221 222 223 223 218 215
96 130 171 298 9 80 203 257 208 190 157 123 111 84 137 135 122 122 117 313 103 125 161 156 166 261 263 202 205 239 221 195 176 159 154 146 138 130 102 75 57 45 86 99 97 94 90 97 99 104 115 129 149 169 182 185 184 184 188 192 192 193 194 197 199 199 199 198 199 206 214 215 212 207 201 194 195 206 217 223 225 227 228 229 226 222
131 106 106 88 291 195 232 339 22 99 113 99 92 103 127 129 106 122 173 230 82 97 145 122 127 253 266 271 254 262 195 176 156 149 146 130 127 131 116 100 77 311 215 143 116 103 94 99 102 103 107 113 125 145 165 181 190 193 192 193 194 197 199 201 201 199 196 196 200 206 212 214 212 208 203 199 197 204 218 227 231 232 232 232 231 228
76 81 93 37 311 321 317 333 11 48 70 64 33 37 74 69 107 143 173 178 130 141 145 92 99 253 284 327 326 103 106 103 106 127 136 131 133 141 135 132 145 187 190 133 110 95 86 87 87 90 94 100 111 126 149 169 187 199 200 198 199 200 198 196 195 190 184 188 195 201 204 206 206 204 203 201 201 206 219 231 237 237 236 237 236 233
12 87 106 98 34 3 347 338 352 8 33 54 352 340 15 58 68 106 125 78 105 173 153 119 180 253 285 351 20 66 87 90 90 107 129 138 147 152 153 153 157 160 144 116 101 88 82 81 77 83 91 100 113 128 149 166 178 194 204 210 211 204 193 187 187 182 176 179 184 188 196 201 202 201 199 199 202 208 221 235 242 241 239 241 239 236
104 122 111 122 152 169 176 236 251 296 5 19 344 342 2 41 52 81 94 71 111 183 117 127 191 248 318 8 21 36 73 94 95 104 128 149 158 164 167 162 160 152 136 125 114 104 91 82 82 92 101 108 118 129 144 164 179 187 202 215 219 209 194 184 182 178 175 179 180 182 192 199 198 195 195 196 199 205 215 227 235 235 233 235 236 235
102 74 97 127 145 176 181 198 212 143 91 79 321 345 349 3 51 84 91 99 168 145 77 222 195 147 25 358 358 348 0 85 120 137 149 168 173 174 171 155 142 137 131 125 120 119 112 106 108 113 117 118 119 124 134 155 180 195 208 216 214 205 194 185 181 178 179 186 190 189 195 201 198 191 190 196 202 209 217 224 228 228 228 230 235 238
92 45 44 100 86 145 160 137 85 90 98 133 148 18 350 358 62 81 92 146 149 119 99 277 247 103 39 343 344 322 320 4 29 10 334 273 289 192 128 114 108 110 120 126 129 133 134 137 139 134 130 128 126 129 136 146 170 204 228 231 220 203 187 176 175 178 183 189 191 193 203 212 209 199 194 198 207 216 222 227 231 233 233 235 237 238
103 76 245 88 60 54 84 98 99 90 77 78 69 31 4 29 77 94 92 274 124 132 189 207 82 76 4 344 347 323 328 35 35 1 354 357 353 10 36 43 46 50 67 106 122 129 138 150 160 151 144 139 135 135 137 141 154 175 204 234 233 222 210 190 174 174 180 188 191 195 207 212 207 201 202 209 216 220 219 221 230 236 239 242 244 241
115 153 207 115 83 56 45 87 109 103 89 61 39 18 42 67 78 87 72 41 88 106 143 114 88 65 355 341 343 335 348 61 61 34 30 28 14 21 39 34 22 16 18 40 53 49 64 63 40 117 143 147 146 145 144 145 147 154 164 181 208 222 227 224 209 194 192 198 202 203 207 207 202 201 207 214 222 225 222 223 229 235 240 245 248 248
97 138 197 98 86 43 17 53 96 106 110 82 44 16 49 71 58 50 42 40 76 90 103 98 87 57 359 353 354 353 24 53 51 39 35 31 24 32 38 29 20 12 8 30 46 43 50 54 44 44 55 110 155 154 151 151 150 151 155 158 164 179 195 206 212 210 209 211 207 198 192 196 203 209 213 217 222 225 224 225 228 232 239 243 244 243
73 118 57 66 91 207 352 64 100 101 89 72 40 3 14 59 70 54 32 17 92 135 113 85 87 55 314 334 10 30 46 50 43 32 31 28 27 38 41 30 26 20 14 32 50 50 49 55 58 57 54 52 61 174 167 161 159 157 157 156 158 161 167 177 180 179 183 188 189 187 184 184 191 197 202 206 211 214 217 220 224 229 234 234 232 232
80 120 117 85 121 228 304 20 111 85 70 47 323 332 10 91 110 90 42 15 24 115 116 106 127 216 307 349 46 51 52 53 45 32 32 29 24 35 42 37 36 36 32 36 47 51 46 46 57 59 54 53 57 59 77 160 163 162 160 159 160 161 161 164 162 160 163 165 170 179 183 185 190 193 196 200 205 210 214 216 217 214 207 199 190 185
55 98 124 112 125 211 284 338 52 64 114 249 277 281 174 140 111 94 60 13 17 46 93 117 96 43 14 38 71 74 66 61 53 40 41 42 37 37 41 39 41 43 40 36 40 40 27 17 26 40 44 45 51 59 58 47 51 124 162 163 161 161 166 169 165 163 164 162 161 171 180 185 186 189 194 195 194 193 189 185 180 170 157 142 126 108
71 85 116 95 105 164 304 30 51 247 215 234 346 56 111 117 102 94 74 29 23 35 55 64 46 30 31 41 69 91 84 69 56 41 28 23 27 34 38 35 34 37 35 33 45 58 49 30 26 32 35 34 37 44 44 36 31 32 51 155 168 165 167 170 168 170 176 175 163 155 169 175 168 174 178 169 162 160 160 162 163 158 151 132 98 63
124 113 129 105 102 142 75 71 141 226 235 359 351 36 88 61 70 80 61 20 8 15 36 56 37 17 34 33 10 51 68 50 49 40 23 11 11 20 26 20 14 15 10 10 22 36 46 53 56 52 41 27 19 12 8 10 10 13 28 57 117 153 164 168 161 185 222 212 195 178 176 180 173 172 172 166 164 165 166 171 177 175 173 145 58 12
139 129 129 129 141 145 118 99 125 136 336 276 309 341 110 313 327 96 98 26 353 358 9 47 31 11 21 17 344 334 12 34 37 25 11 9 7 9 18 16 13 13 10 11 16 21 23 23 28 80 62 24 13 350 348 357 355 348 354 7 13 20 37 63 79 88 99 202 218 217 212 209 203 193 191 192 194 196 202 214 225 223 225 272 330 340
119 147 166 172 185 116 103 97 95 129 213 226 253 280 276 258 254 150 117 89 346 351 349 63 56 28 22 9 346 346 52 51 27 339 337 353 356 0 12 15 19 23 22 20 19 19 21 21 20 25 30 20 19 3 348 349 341 331 330 330 330 334 342 357 15 43 68 75 67 352 242 225 227 227 217 210 209 215 229 244 250 251 256 276 299 314
47 58 123 129 146 121 118 135 165 185 220 238 254 281 301 272 217 109 85 47 315 334 330 89 81 54 49 36 4 22 74 78 289 282 312 338 339 341 353 1 8 15 17 19 19 15 13 14 13 15 19 18 19 15 5 352 328 314 313 316 317 311 306 313 321 323 332 347 5 1 341 296 259 245 226 216 218 225 227 227 229 234 247 264 278 288
30 24 52 90 122 133 124 130 157 180 226 259 257 282 307 290 141 103 99 241 256 321 319 85 91 72 68 67 42 50 84 131 235 275 309 325 321 317 325 343 350 354 357 1 5 3 360 358 360 2 5 6 5 6 8 9 354 320 299 294 291 277 270 275 279 277 275 269 259 261 279 285 275 251 228 216 216 215 211 214 221 235 250 259 259 262
18 16 48 96 92 77 101 107 94 190 254 286 283 303 322 334 118 126 210 224 200 282 312 79 90 78 71 77 77 90 147 212 240 278 308 320 317 315 324 333 333 333 341 347 349 349 346 345 346 345 344 345 346 348 353 357 2 357 330 305 287 271 265 264 259 251 247 246 241 236 241 247 249 250 249 239 224 213 210 218 233 246 252 246 241 240
11 10 21 64 59 51 94 101 93 152 318 324 316 336 356 20 154 187 222 185 139 157 138 80 90 104 86 82 128 196 239 268 275 286 300 303 297 303 316 323 326 329 333 334 337 340 337 334 333 327 325 329 333 337 341 340 340 347 349 339 318 297 289 285 275 263 256 254 253 250 246 246 248 250 251 247 237 225 214 209 220 260 264 243 234 231
46 43 19 30 47 58 71 77 110 147 331 329 324 3 27 72 172 194 37 54 120 163 139 100 128 166 146 110 266 254 270 294 295 292 298 296 295 305 311 312 313 316 321 321 323 326 326 321 318 315 315 320 323 325 330 330 328 330 333 335 334 323 306 294 284 273 264 260 257 253 250 248 244 240 236 232 227 221 216 215 231 275 292 252 237 233
23 88 140 331 355 68 98 95 128 174 321 342 27 80 52 47 148 154 110 39 339 227 123 72 318 235 203 231 285 288 291 303 307 310 313 312 314 316 317 319 319 316 315 315 315 316 316 309 305 304 303 307 312 314 315 315 315 315 313 314 322 325 318 307 296 278 264 258 253 248 246 242 236 232 230 228 226 224 223 229 245 268 279 262 247 242
8 105 130 96 33 79 111 129 145 175 318 11 55 88 71 28 24 96 117 85 17 337 5 26 356 329 316 304 316 325 323 316 318 321 317 314 315 318 317 319 320 320 319 318 317 317 316 311 307 305 303 303 304 301 300 301 299 297 296 297 302 308 310 310 307 295 278 264 252 245 242 241 239 235 229 225 225 227 230 237 248 264 275 270 257 249
15 77 89 94 101 83 63 68 107 119 49 40 50 53 58 53 39 68 92 81 36 11 22 27 0 345 352 5 0 340 316 310 315 317 317 318 317 320 322 323 325 328 328 326 324 323 320 314 309 304 302 303 301 297 295 293 288 286 289 291 295 298 299 298 296 296 292 282 265 247 236 232 232 232 229 227 228 231 235 242 250 260 265 263 260 254
334 59 75 100 126 105 87 121 153 148 133 85 53 37 42 45 36 53 82 93 79 58 47 25 351 338 348 11 14 334 308 315 327 321 319 325 319 320 326 328 329 333 333 330 329 328 326 321 315 307 302 298 296 296 297 292 286 284 286 288 292 295 296 291 285 284 285 284 280 270 250 233 225 222 225 231 234 236 239 242 247 249 247 249 255 254
338 55 77 92 89 103 167 196 190 172 171 31 52 81 81 67 50 48 73 101 98 66 34 15 13 14 9 11 14 355 327 327 333 321 314 312 308 310 315 319 320 322 321 321 320 320 321 320 315 311 306 301 300 301 299 294 290 288 287 286 285 286 288 286 281 277 276 276 277 276 270 259 243 230 226 230 233 233 232 232 236 237 239 246 252 255
358 37 88 100 64 36 280 233 128 143 296 342 26 189 229 198 131 84 66 67 57 37 24 24 31 38 37 24 11 359 339 322 313 310 307 304 303 304 306 310 313 313 311 311 312 312 311 308 305 304 302 302 304 305 301 295 291 289 288 284 277 273 274 275 275 275 271 269 269 269 268 267 263 253 243 236 232 230 230 231 232 233 236 244 250 257
49 56 96 90 79 323 249 198 146 156 229 251 213 235 257 222 145 115 100 66 38 28 40 48 38 30 27 13 347 332 320 308 308 308 304 300 302 304 306 310 310 308 307 307 306 305 302 299 297 297 296 296 299 301 299 295 290 287 285 279 273 271 271 271 273 275 274 271 269 265 262 262 262 259 251 242 236 233 234 235 234 233 235 240 247 254
124 163 167 134 142 214 229 210 169 146 164 195 192 211 240 176 137 127 136 125 82 96 125 118 72 7 344 333 328 322 310 308 316 316 308 304 305 305 305 307 307 306 307 307 306 303 300 298 296 295 293 294 295 294 293 291 288 285 282 279 276 277 275 270 267 267 270 272 272 268 263 259 259 258 252 243 235 228 225 225 227 229 231 234 238 238